TimeCST,TemperatureF,Dew PointF,Humidity,Sea Level PressureIn,VisibilityMPH,Wind Direction,Wind SpeedMPH,Gust SpeedMPH,PrecipitationIn,Events,Conditions,WindDirDegrees,DateUTC
12:53 AM,34.0,21.9,61,30.13,10.0,NW,20.7,29.9,N/A,,Overcast,310,2013-03-06 06:53:00
1:53 AM,34.0,23.0,64,30.15,10.0,NW,17.3,21.9,N/A,,Overcast,310,2013-03-06 07:53:00
2:53 AM,34.0,23.0,64,30.17,10.0,NW,16.1,32.2,N/A,,Overcast,310,2013-03-06 08:53:00
3:24 AM,33.8,24.8,70,30.17,10.0,NW,16.1,-,N/A,,Overcast,320,2013-03-06 09:24:00
3:32 AM,33.8,23.0,65,30.17,10.0,NW,15.0,23.0,N/A,,Overcast,320,2013-03-06 09:32:00
3:53 AM,33.1,23.0,66,30.18,10.0,NW,16.1,27.6,N/A,,Overcast,320,2013-03-06 09:53:00
4:53 AM,33.1,21.9,64,30.22,10.0,NNW,18.4,25.3,N/A,,Overcast,330,2013-03-06 10:53:00
5:53 AM,33.1,21.0,61,30.25,10.0,NNW,13.8,24.2,N/A,,Overcast,330,2013-03-06 11:53:00
6:53 AM,33.1,21.0,61,30.28,10.0,NNW,15.0,-,N/A,,Overcast,330,2013-03-06 12:53:00
7:53 AM,33.1,21.9,64,30.32,10.0,NNW,16.1,26.5,N/A,,Overcast,340,2013-03-06 13:53:00
8:53 AM,34.0,21.9,61,30.33,10.0,NNW,16.1,26.5,N/A,,Overcast,330,2013-03-06 14:53:00
9:16 AM,33.8,23.0,65,30.33,10.0,NNW,16.1,25.3,N/A,,Overcast,330,2013-03-06 15:16:00
9:53 AM,35.1,23.0,61,30.35,10.0,NNW,17.3,24.2,N/A,,Overcast,340,2013-03-06 15:53:00
10:53 AM,36.0,24.1,62,30.36,10.0,NNW,15.0,-,N/A,,Overcast,340,2013-03-06 16:53:00
11:22 AM,37.4,24.8,60,30.36,10.0,North,17.3,20.7,N/A,,Overcast,360,2013-03-06 17:22:00
11:29 AM,37.4,24.8,60,30.36,2.0,NNW,15.0,-,N/A,,Haze,340,2013-03-06 17:29:00
11:39 AM,37.4,24.8,60,30.35,10.0,NNW,16.1,-,N/A,,Overcast,330,2013-03-06 17:39:00
11:53 AM,39.0,25.0,57,30.35,10.0,North,15.0,-,N/A,,Overcast,360,2013-03-06 17:53:00
12:53 PM,39.9,24.1,53,30.34,10.0,North,11.5,18.4,N/A,,Overcast,360,2013-03-06 18:53:00
1:53 PM,41.0,25.0,53,30.32,10.0,NW,8.1,-,N/A,,Mostly Cloudy,310,2013-03-06 19:53:00
2:53 PM,42.1,26.1,53,30.33,10.0,North,8.1,17.3,N/A,,Mostly Cloudy,360,2013-03-06 20:53:00
3:53 PM,44.1,26.1,49,30.33,10.0,NNE,13.8,-,N/A,,Mostly Cloudy,20,2013-03-06 21:53:00
4:53 PM,43.0,26.1,51,30.32,10.0,North,9.2,-,N/A,,Partly Cloudy,350,2013-03-06 22:53:00
5:53 PM,37.9,27.0,65,30.33,10.0,North,8.1,-,N/A,,Clear,10,2013-03-06 23:53:00
6:53 PM,35.1,26.1,70,30.35,10.0,NNE,4.6,-,N/A,,Clear,20,2013-03-07 00:53:00
7:53 PM,33.1,26.1,75,30.34,10.0,NNE,5.8,-,N/A,,Clear,20,2013-03-07 01:53:00
8:53 PM,32.0,25.0,75,30.34,10.0,Calm,Calm,-,N/A,,Clear,0,2013-03-07 02:53:00
9:53 PM,32.0,24.1,73,30.34,10.0,Calm,Calm,-,N/A,,Clear,0,2013-03-07 03:53:00
10:53 PM,30.9,24.1,76,30.35,10.0,Calm,Calm,-,N/A,,Clear,0,2013-03-07 04:53:00
11:53 PM,28.0,25.0,88,30.34,10.0,Calm,Calm,-,N/A,,Clear,0,2013-03-07 05:53:00